| time (UTC) | temp F | wind direction | speed MPH | gust MPH | rain 1hr in | rain 24hr in | rain mn in | humidity % | barometer mb |
| 20260507064127 | 56 | 33 | 0.0 | 2.0 | 0.00 | 0.00 | 0.00 | 44 | 1020.1 |
| 20260507063620 | 56 | 24 | 0.0 | 4.0 | 0.00 | 0.00 | 0.00 | 44 | 1020.1 |
| 20260507063120 | 56 | 24 | 0.0 | 4.0 | 0.00 | 0.00 | 0.00 | 44 | 1020.1 |
| 20260507062620 | 56 | 24 | 0.0 | 2.0 | 0.00 | 0.00 | 0.00 | 43 | 1019.9 |
| 20260507062121 | 56 | 24 | 0.0 | 3.0 | 0.00 | 0.00 | 0.00 | 41 | 1019.9 |
| 20260507061621 | 57 | 24 | 1.0 | 3.0 | 0.00 | 0.00 | 0.00 | 42 | 1019.9 |
| 20260507061121 | 57 | 25 | 1.0 | 5.0 | 0.00 | 0.00 | 0.00 | 43 | 1019.8 |
| 20260507061110 | 56 | 5 | 0.0 | 5.0 | 0.00 | 0.00 | 0.00 | 44 | 1019.8 |
| 20260507060120 | 56 | 123 | 0.0 | 2.0 | 0.00 | 0.00 | 0.00 | 41 | 1019.9 |
| 20260507055622 | 56 | 123 | 0.0 | 2.0 | 0.00 | 0.00 | 0.00 | 41 | 1019.8 |
| 20260507055120 | 57 | 123 | 0.0 | 2.0 | 0.00 | 0.00 | 0.00 | 41 | 1019.8 |
| 20260507054845 | 57 | 123 | 0.0 | 2.0 | 0.00 | 0.00 | 0.00 | 42 | 1019.7 |
| 20260507054121 | 57 | 124 | 0.0 | 2.0 | 0.00 | 0.00 | 0.00 | 42 | 1019.7 |
| 20260507053620 | 57 | 124 | 0.0 | 5.0 | 0.00 | 0.00 | 0.00 | 41 | 1019.7 |
| 20260507053121 | 57 | 169 | 1.0 | 5.0 | 0.00 | 0.00 | 0.00 | 40 | 1019.7 |
| 20260507052620 | 58 | 0 | 1.0 | 3.0 | 0.00 | 0.00 | 0.00 | 40 | 1019.6 |
| 20260507052119 | 58 | 0 | 1.0 | 3.0 | 0.00 | 0.00 | 0.00 | 40 | 1019.5 |
| 20260507051618 | 58 | 338 | 0.0 | 3.0 | 0.00 | 0.00 | 0.00 | 40 | 1019.6 |
| 20260507051120 | 58 | 336 | 0.0 | 2.0 | 0.00 | 0.00 | 0.00 | 40 | 1019.5 |
| 20260507050611 | 58 | 336 | 0.0 | 2.0 | 0.00 | 0.00 | 0.00 | 40 | 1019.5 |
| 20260507050110 | 58 | 265 | 0.0 | 1.0 | 0.00 | 0.00 | 0.00 | 40 | 1019.5 |
| 20260507045611 | 58 | 265 | 0.0 | 2.0 | 0.00 | 0.00 | 0.00 | 39 | 1019.5 |
| 20260507045109 | 58 | 265 | 0.0 | 2.0 | 0.00 | 0.00 | 0.00 | 38 | 1019.3 |
| 20260507044606 | 58 | 263 | 0.0 | 0.0 | 0.00 | 0.00 | 0.00 | 37 | 1019.4 |
| 20260507044105 | 58 | 263 | 0.0 | 1.0 | 0.00 | 0.00 | 0.00 | 37 | 1019.3 |
| 20260507043605 | 58 | 263 | 0.0 | 2.0 | 0.00 | 0.00 | 0.00 | 36 | 1019.3 |
| 20260507043552 | 58 | 263 | 0.0 | 2.0 | 0.00 | 0.00 | 0.00 | 36 | 1019.1 |
| 20260507042603 | 59 | 263 | 0.0 | 1.0 | 0.00 | 0.00 | 0.00 | 36 | 1019.0 |
| 20260507042105 | 59 | 263 | 0.0 | 1.0 | 0.00 | 0.00 | 0.00 | 35 | 1019.0 |
| 20260507042054 | 59 | 263 | 0.0 | 1.0 | 0.00 | 0.00 | 0.00 | 35 | 1019.0 |
| 20260507041104 | 60 | 263 | 0.0 | 0.0 | 0.00 | 0.00 | 0.00 | 35 | 1018.9 |
| 20260507040831 | 60 | 263 | 0.0 | 1.0 | 0.00 | 0.00 | 0.00 | 35 | 1018.9 |
| 20260507040104 | 61 | 263 | 0.0 | 1.0 | 0.00 | 0.00 | 0.00 | 34 | 1018.7 |
| 20260507035826 | 61 | 263 | 0.0 | 0.0 | 0.00 | 0.00 | 0.00 | 34 | 1018.7 |
| 20260507035103 | 62 | 263 | 0.0 | 1.0 | 0.00 | 0.00 | 0.00 | 34 | 1018.6 |
| 20260507034603 | 62 | 263 | 0.0 | 2.0 | 0.00 | 0.00 | 0.00 | 34 | 1018.5 |
| 20260507034102 | 63 | 263 | 0.0 | 2.0 | 0.00 | 0.00 | 0.00 | 33 | 1018.3 |
| 20260507033605 | 63 | 263 | 0.0 | 0.0 | 0.00 | 0.00 | 0.00 | 34 | 1018.1 |
| 20260507033100 | 64 | 263 | 0.0 | 0.0 | 0.00 | 0.00 | 0.00 | 32 | 1018.0 |
| 20260507032559 | 64 | 263 | 0.0 | 1.0 | 0.00 | 0.00 | 0.00 | 31 | 1018.0 |
| 20260507032325 | 65 | 263 | 0.0 | 1.0 | 0.00 | 0.00 | 0.00 | 32 | 1017.9 |
| 20260507031559 | 65 | 263 | 0.0 | 1.0 | 0.00 | 0.00 | 0.00 | 30 | 1017.8 |
| 20260507031057 | 66 | 263 | 0.0 | 1.0 | 0.00 | 0.00 | 0.00 | 30 | 1017.7 |
| 20260507030558 | 67 | 263 | 0.0 | 0.0 | 0.00 | 0.00 | 0.00 | 28 | 1017.5 |
| 20260507030056 | 67 | 263 | 0.0 | 0.0 | 0.00 | 0.00 | 0.00 | 28 | 1017.4 |
| 20260507025553 | 68 | 263 | 0.0 | 0.0 | 0.00 | 0.01 | 0.00 | 27 | 1017.3 |
| 20260507025053 | 68 | 263 | 0.0 | 1.0 | 0.00 | 0.01 | 0.00 | 27 | 1017.2 |
| 20260507024552 | 69 | 263 | 1.0 | 3.0 | 0.00 | 0.01 | 0.00 | 26 | 1017.1 |
| 20260507024050 | 69 | 263 | 1.0 | 3.0 | 0.00 | 0.01 | 0.00 | 26 | 1017.0 |
| 20260507023546 | 69 | 264 | 0.0 | 3.0 | 0.00 | 0.02 | 0.00 | 26 | 1017.0 |
| 20260507023043 | 70 | 265 | 0.0 | 3.0 | 0.00 | 0.02 | 0.00 | 25 | 1016.7 |
| 20260507022542 | 70 | 266 | 1.0 | 4.0 | 0.00 | 0.02 | 0.00 | 25 | 1016.7 |
| 20260507022041 | 71 | 266 | 2.0 | 11.0 | 0.00 | 0.02 | 0.00 | 24 | 1016.6 |
| 20260507021806 | 71 | 270 | 1.0 | 11.0 | 0.00 | 0.02 | 0.00 | 24 | 1016.5 |
| 20260507021038 | 71 | 285 | 1.0 | 6.0 | 0.00 | 0.02 | 0.00 | 23 | 1016.4 |
| 20260507020545 | 72 | 279 | 1.0 | 6.0 | 0.00 | 0.02 | 0.00 | 23 | 1016.3 |
| 20260507020043 | 72 | 273 | 1.0 | 6.0 | 0.00 | 0.02 | 0.00 | 23 | 1016.3 |
| 20260507015540 | 73 | 281 | 1.0 | 8.0 | 0.00 | 0.02 | 0.00 | 22 | 1016.2 |
| 20260507015037 | 73 | 277 | 1.0 | 8.0 | 0.00 | 0.02 | 0.00 | 22 | 1016.1 |
| 20260507014537 | 73 | 264 | 2.0 | 7.0 | 0.00 | 0.02 | 0.00 | 22 | 1016.1 |
| 20260507014034 | 74 | 273 | 1.0 | 7.0 | 0.00 | 0.02 | 0.00 | 21 | 1015.8 |
| 20260507013529 | 74 | 172 | 2.0 | 8.0 | 0.00 | 0.02 | 0.00 | 21 | 1015.7 |
| 20260507013015 | 74 | 172 | 2.0 | 8.0 | 0.00 | 0.02 | 0.00 | 21 | 1015.6 |
| 20260507012513 | 74 | 196 | 2.0 | 7.0 | 0.00 | 0.02 | 0.00 | 21 | 1015.6 |
| 20260507012020 | 74 | 170 | 3.0 | 7.0 | 0.00 | 0.02 | 0.00 | 21 | 1015.5 |
| 20260507011518 | 74 | 182 | 2.0 | 7.0 | 0.00 | 0.02 | 0.00 | 20 | 1015.6 |
| 20260507011239 | 75 | 180 | 2.0 | 7.0 | 0.00 | 0.02 | 0.00 | 20 | 1015.6 |
| 20260507010515 | 75 | 181 | 4.0 | 9.0 | 0.00 | 0.02 | 0.00 | 20 | 1015.5 |
| 20260507010013 | 75 | 181 | 3.0 | 9.0 | 0.00 | 0.02 | 0.00 | 20 | 1015.4 |
| 20260507005510 | 76 | 200 | 3.0 | 11.0 | 0.00 | 0.02 | 0.00 | 20 | 1015.4 |
| 20260507005011 | 75 | 182 | 4.0 | 11.0 | 0.00 | 0.02 | 0.00 | 20 | 1015.4 |
| 20260507004509 | 76 | 158 | 3.0 | 6.0 | 0.00 | 0.02 | 0.00 | 20 | 1015.4 |
| 20260507004010 | 76 | 164 | 2.0 | 7.0 | 0.00 | 0.02 | 0.00 | 20 | 1015.4 |
| 20260507003725 | 76 | 169 | 2.0 | 7.0 | 0.00 | 0.02 | 0.00 | 20 | 1015.4 |
| 20260507003004 | 77 | 268 | 3.0 | 9.0 | 0.00 | 0.02 | 0.00 | 20 | 1015.4 |
| 20260507002504 | 76 | 198 | 3.0 | 9.0 | 0.00 | 0.02 | 0.00 | 20 | 1015.3 |
| 20260507002004 | 77 | 185 | 3.0 | 10.0 | 0.00 | 0.02 | 0.00 | 20 | 1015.3 |
| 20260507001504 | 76 | 239 | 4.0 | 10.0 | 0.00 | 0.02 | 0.00 | 20 | 1015.3 |
| 20260507001005 | 76 | 85 | 3.0 | 13.0 | 0.00 | 0.02 | 0.00 | 21 | 1015.2 |
| 20260507000504 | 77 | 180 | 2.0 | 13.0 | 0.00 | 0.02 | 0.00 | 20 | 1015.2 |
| 20260507000005 | 77 | 250 | 3.0 | 13.0 | 0.00 | 0.02 | 0.00 | 20 | 1015.2 |
| 20260506235504 | 77 | 172 | 3.0 | 15.0 | 0.00 | 0.02 | 0.00 | 19 | 1015.3 |
| 20260506235000 | 78 | 196 | 2.0 | 15.0 | 0.00 | 0.02 | 0.00 | 19 | 1015.3 |
| 20260506234455 | 78 | 225 | 2.0 | 6.0 | 0.00 | 0.02 | 0.00 | 19 | 1015.0 |
| 20260506233948 | 77 | 229 | 1.0 | 6.0 | 0.00 | 0.02 | 0.00 | 20 | 1015.2 |
| 20260506233705 | 78 | 176 | 2.0 | 7.0 | 0.00 | 0.02 | 0.00 | 19 | 1015.2 |
| 20260506232939 | 78 | 259 | 2.0 | 8.0 | 0.00 | 0.02 | 0.00 | 19 | 1015.3 |
| 20260506232438 | 77 | 268 | 2.0 | 8.0 | 0.00 | 0.02 | 0.00 | 20 | 1015.3 |
| 20260506231933 | 77 | 259 | 3.0 | 9.0 | 0.00 | 0.02 | 0.00 | 20 | 1015.3 |
| 20260506231433 | 76 | 232 | 2.0 | 9.0 | 0.00 | 0.02 | 0.00 | 20 | 1015.4 |
| 20260506230932 | 77 | 194 | 2.0 | 6.0 | 0.00 | 0.02 | 0.00 | 20 | 1015.4 |
| 20260506230431 | 76 | 298 | 3.0 | 8.0 | 0.00 | 0.02 | 0.00 | 21 | 1015.5 |
| 20260506225931 | 77 | 175 | 3.0 | 8.0 | 0.00 | 0.02 | 0.00 | 20 | 1015.5 |
| 20260506225431 | 76 | 139 | 2.0 | 8.0 | 0.00 | 0.02 | 0.00 | 21 | 1015.4 |
| 20260506224931 | 76 | 271 | 4.0 | 10.0 | 0.00 | 0.02 | 0.00 | 21 | 1015.5 |
| 20260506224431 | 77 | 168 | 4.0 | 10.0 | 0.00 | 0.02 | 0.00 | 20 | 1015.6 |
| 20260506223931 | 78 | 274 | 1.0 | 9.0 | 0.00 | 0.02 | 0.00 | 20 | 1015.6 |
| 20260506223431 | 77 | 190 | 2.0 | 7.0 | 0.00 | 0.02 | 0.00 | 21 | 1015.6 |
| 20260506222931 | 77 | 166 | 2.0 | 7.0 | 0.00 | 0.02 | 0.00 | 20 | 1015.6 |
| 20260506222431 | 77 | 150 | 2.0 | 7.0 | 0.00 | 0.02 | 0.00 | 21 | 1015.8 |
| 20260506221932 | 75 | 169 | 4.0 | 14.0 | 0.00 | 0.02 | 0.00 | 22 | 1015.8 |
| 20260506221651 | 76 | 271 | 5.0 | 14.0 | 0.00 | 0.02 | 0.00 | 21 | 1016.0 |
| 20260506221151 | 76 | 182 | 3.0 | 10.0 | 0.00 | 0.02 | 0.00 | 20 | 1016.1 |
| 20260506220431 | 76 | 176 | 3.0 | 9.0 | 0.00 | 0.02 | 0.00 | 22 | 1016.0 |
| 20260506215925 | 76 | 258 | 2.0 | 9.0 | 0.00 | 0.02 | 0.00 | 21 | 1016.1 |
| 20260506215420 | 76 | 188 | 1.0 | 6.0 | 0.00 | 0.02 | 0.00 | 21 | 1016.3 |
| 20260506214920 | 75 | 186 | 2.0 | 11.0 | 0.00 | 0.02 | 0.00 | 22 | 1016.3 |
| 20260506214648 | 75 | 186 | 3.0 | 12.0 | 0.00 | 0.02 | 0.00 | 22 | 1016.5 |
| 20260506214147 | 75 | 169 | 3.0 | 12.0 | 0.00 | 0.02 | 0.00 | 22 | 1016.5 |
| 20260506213905 | 75 | 268 | 4.0 | 11.0 | 0.00 | 0.02 | 0.00 | 22 | 1016.7 |
| 20260506212920 | 75 | 178 | 3.0 | 11.0 | 0.00 | 0.02 | 0.00 | 22 | 1016.6 |
| 20260506212420 | 75 | 239 | 3.0 | 9.0 | 0.00 | 0.02 | 0.00 | 23 | 1016.7 |
| 20260506211920 | 74 | 165 | 4.0 | 14.0 | 0.00 | 0.02 | 0.00 | 22 | 1016.9 |
| 20260506211420 | 75 | 179 | 3.0 | 14.0 | 0.00 | 0.02 | 0.00 | 22 | 1017.1 |
| 20260506211412 | 76 | 291 | 3.0 | 10.0 | 0.00 | 0.02 | 0.00 | 23 | 1017.2 |
| 20260506210646 | 75 | 153 | 3.0 | 10.0 | 0.00 | 0.02 | 0.00 | 23 | 1017.2 |
| 20260506205919 | 75 | 190 | 3.0 | 10.0 | 0.00 | 0.02 | 0.00 | 23 | 1017.3 |
| 20260506205419 | 73 | 270 | 3.0 | 10.0 | 0.00 | 0.02 | 0.00 | 23 | 1017.3 |
| 20260506205150 | 73 | 269 | 2.0 | 7.0 | 0.00 | 0.02 | 0.00 | 25 | 1017.2 |
| 20260506204420 | 73 | 157 | 3.0 | 13.0 | 0.00 | 0.02 | 0.00 | 23 | 1017.3 |
| 20260506203920 | 73 | 272 | 3.0 | 13.0 | 0.00 | 0.02 | 0.00 | 24 | 1017.3 |
| 20260506203418 | 73 | 272 | 2.0 | 11.0 | 0.00 | 0.02 | 0.00 | 25 | 1017.3 |
| 20260506202918 | 73 | 302 | 5.0 | 14.0 | 0.00 | 0.02 | 0.00 | 25 | 1017.3 |
| 20260506202417 | 73 | 163 | 5.0 | 14.0 | 0.00 | 0.02 | 0.00 | 25 | 1017.4 |
| 20260506202142 | 74 | 194 | 2.0 | 8.0 | 0.00 | 0.02 | 0.00 | 25 | 1017.4 |
| 20260506201418 | 71 | 290 | 1.0 | 5.0 | 0.00 | 0.02 | 0.00 | 26 | 1017.4 |
| 20260506200915 | 72 | 216 | 3.0 | 12.0 | 0.00 | 0.02 | 0.00 | 27 | 1017.4 |
| 20260506200416 | 71 | 287 | 4.0 | 12.0 | 0.00 | 0.02 | 0.00 | 26 | 1017.5 |
| 20260506195913 | 72 | 279 | 4.0 | 11.0 | 0.00 | 0.02 | 0.00 | 25 | 1017.5 |
| 20260506195414 | 71 | 177 | 2.0 | 11.0 | 0.00 | 0.02 | 0.00 | 26 | 1017.5 |
| 20260506194913 | 73 | 268 | 2.0 | 9.0 | 0.00 | 0.02 | 0.00 | 26 | 1017.5 |
| 20260506194413 | 72 | 184 | 2.0 | 9.0 | 0.00 | 0.02 | 0.00 | 26 | 1017.7 |
| 20260506193913 | 71 | 235 | 1.0 | 5.0 | 0.00 | 0.02 | 0.00 | 27 | 1017.7 |
| 20260506193408 | 70 | 172 | 1.0 | 7.0 | 0.00 | 0.02 | 0.00 | 27 | 1017.8 |
| 20260506192906 | 71 | 184 | 2.0 | 8.0 | 0.00 | 0.02 | 0.00 | 27 | 1017.9 |
| 20260506192404 | 70 | 291 | 2.0 | 8.0 | 0.00 | 0.02 | 0.00 | 28 | 1017.9 |
| 20260506191903 | 69 | 148 | 3.0 | 12.0 | 0.00 | 0.02 | 0.00 | 28 | 1017.9 |
| 20260506191625 | 69 | 182 | 3.0 | 12.0 | 0.00 | 0.02 | 0.00 | 28 | 1018.0 |
| 20260506190903 | 69 | 163 | 3.0 | 9.0 | 0.00 | 0.02 | 0.00 | 29 | 1018.0 |
| 20260506190403 | 70 | 170 | 1.0 | 9.0 | 0.00 | 0.02 | 0.00 | 28 | 1018.1 |
| 20260506190352 | 70 | 221 | 1.0 | 6.0 | 0.00 | 0.02 | 0.00 | 31 | 1018.1 |
| 20260506185608 | 69 | 227 | 2.0 | 8.0 | 0.00 | 0.02 | 0.00 | 32 | 1018.1 |
| 20260506184403 | 67 | 121 | 2.0 | 7.0 | 0.00 | 0.02 | 0.00 | 31 | 1018.2 |
| 20260506184127 | 65 | 135 | 3.0 | 10.0 | 0.00 | 0.02 | 0.00 | 32 | 1018.3 |
| 20260506183403 | 66 | 189 | 2.0 | 10.0 | 0.00 | 0.02 | 0.00 | 32 | 1018.5 |
| 20260506182903 | 66 | 283 | 2.0 | 8.0 | 0.00 | 0.02 | 0.00 | 32 | 1018.5 |
| 20260506182403 | 66 | 295 | 2.0 | 8.0 | 0.00 | 0.02 | 0.00 | 31 | 1018.7 |
| 20260506182126 | 67 | 196 | 4.0 | 9.0 | 0.00 | 0.02 | 0.00 | 32 | 1018.7 |
| 20260506181403 | 67 | 173 | 4.0 | 9.0 | 0.00 | 0.02 | 0.00 | 32 | 1018.8 |
| 20260506180903 | 66 | 179 | 3.0 | 11.0 | 0.00 | 0.02 | 0.00 | 33 | 1018.9 |
| 20260506180628 | 65 | 150 | 3.0 | 11.0 | 0.00 | 0.02 | 0.00 | 33 | 1019.0 |
| 20260506175903 | 64 | 270 | 2.0 | 6.0 | 0.00 | 0.02 | 0.00 | 33 | 1019.0 |
| 20260506175403 | 64 | 171 | 2.0 | 7.0 | 0.00 | 0.02 | 0.00 | 34 | 1019.0 |
| 20260506174903 | 63 | 262 | 2.0 | 7.0 | 0.00 | 0.02 | 0.00 | 35 | 1019.0 |
| 20260506174404 | 64 | 168 | 2.0 | 6.0 | 0.00 | 0.02 | 0.00 | 34 | 1018.9 |
| 20260506173903 | 64 | 184 | 3.0 | 8.0 | 0.00 | 0.02 | 0.00 | 34 | 1019.0 |
| 20260506173403 | 63 | 161 | 5.0 | 13.0 | 0.00 | 0.02 | 0.00 | 34 | 1018.9 |
| 20260506172903 | 63 | 152 | 4.0 | 13.0 | 0.00 | 0.02 | 0.00 | 34 | 1019.0 |
| 20260506172403 | 62 | 171 | 2.0 | 9.0 | 0.00 | 0.02 | 0.00 | 35 | 1019.0 |
| 20260506171903 | 62 | 141 | 2.0 | 9.0 | 0.00 | 0.02 | 0.00 | 36 | 1019.0 |
| 20260506171403 | 62 | 173 | 2.0 | 9.0 | 0.00 | 0.02 | 0.00 | 35 | 1019.0 |
| 20260506170903 | 61 | 258 | 3.0 | 15.0 | 0.00 | 0.02 | 0.00 | 37 | 1019.0 |
| 20260506170357 | 62 | 183 | 2.0 | 15.0 | 0.00 | 0.02 | 0.00 | 35 | 1019.0 |
| 20260506165851 | 61 | 176 | 1.0 | 7.0 | 0.00 | 0.02 | 0.00 | 36 | 1019.0 |
| 20260506165347 | 61 | 182 | 1.0 | 6.0 | 0.00 | 0.02 | 0.00 | 37 | 1019.0 |
| 20260506164845 | 60 | 179 | 2.0 | 7.0 | 0.00 | 0.02 | 0.00 | 38 | 1019.0 |
| 20260506164343 | 60 | 169 | 2.0 | 7.0 | 0.00 | 0.02 | 0.00 | 37 | 1019.0 |
| 20260506163840 | 60 | 200 | 2.0 | 7.0 | 0.00 | 0.02 | 0.00 | 38 | 1018.9 |
| 20260506163339 | 60 | 272 | 3.0 | 8.0 | 0.00 | 0.02 | 0.00 | 39 | 1018.9 |
| 20260506162839 | 60 | 180 | 3.0 | 8.0 | 0.00 | 0.02 | 0.00 | 40 | 1018.9 |
| 20260506162339 | 59 | 178 | 3.0 | 8.0 | 0.00 | 0.02 | 0.00 | 40 | 1018.9 |
| 20260506161839 | 59 | 175 | 2.0 | 8.0 | 0.00 | 0.02 | 0.00 | 40 | 1018.9 |
| 20260506161337 | 59 | 184 | 2.0 | 8.0 | 0.00 | 0.02 | 0.00 | 41 | 1019.0 |
| 20260506160835 | 58 | 131 | 1.0 | 6.0 | 0.00 | 0.02 | 0.00 | 41 | 1018.9 |
| 20260506160336 | 58 | 170 | 1.0 | 6.0 | 0.00 | 0.02 | 0.00 | 42 | 1019.0 |
| 20260506155833 | 57 | 171 | 1.0 | 6.0 | 0.00 | 0.02 | 0.00 | 42 | 1019.0 |
| 20260506155333 | 57 | 155 | 2.0 | 7.0 | 0.00 | 0.02 | 0.00 | 42 | 1019.0 |
| 20260506154833 | 56 | 189 | 1.0 | 7.0 | 0.00 | 0.02 | 0.00 | 43 | 1019.0 |
| 20260506154331 | 56 | 136 | 1.0 | 5.0 | 0.00 | 0.02 | 0.00 | 44 | 1019.0 |
| 20260506154058 | 56 | 155 | 0.0 | 3.0 | 0.00 | 0.02 | 0.00 | 45 | 1019.0 |
| 20260506153330 | 55 | 155 | 0.0 | 2.0 | 0.00 | 0.02 | 0.00 | 45 | 1018.9 |
| 20260506152831 | 54 | 155 | 0.0 | 3.0 | 0.00 | 0.02 | 0.00 | 46 | 1019.0 |
| 20260506152331 | 54 | 155 | 1.0 | 3.0 | 0.00 | 0.02 | 0.00 | 46 | 1018.9 |
| 20260506151829 | 54 | 142 | 1.0 | 5.0 | 0.00 | 0.02 | 0.00 | 49 | 1018.9 |
| 20260506151323 | 53 | 117 | 1.0 | 5.0 | 0.00 | 0.02 | 0.00 | 50 | 1018.9 |
| 20260506150817 | 53 | 125 | 1.0 | 3.0 | 0.00 | 0.02 | 0.00 | 52 | 1018.9 |
| 20260506150316 | 53 | 128 | 1.0 | 5.0 | 0.00 | 0.02 | 0.00 | 54 | 1018.9 |
| 20260506145814 | 52 | 127 | 1.0 | 5.0 | 0.00 | 0.02 | 0.00 | 55 | 1018.9 |
| 20260506145313 | 51 | 127 | 2.0 | 6.0 | 0.00 | 0.02 | 0.00 | 56 | 1018.9 |
| 20260506144812 | 51 | 129 | 2.0 | 6.0 | 0.00 | 0.02 | 0.00 | 57 | 1018.8 |
| 20260506144535 | 50 | 86 | 1.0 | 4.0 | 0.00 | 0.02 | 0.00 | 58 | 1018.8 |
| 20260506143810 | 50 | 146 | 1.0 | 7.0 | 0.00 | 0.02 | 0.00 | 59 | 1018.8 |
| 20260506143308 | 49 | 138 | 1.0 | 9.0 | 0.00 | 0.02 | 0.00 | 60 | 1018.7 |
| 20260506142806 | 49 | 122 | 2.0 | 9.0 | 0.00 | 0.02 | 0.00 | 60 | 1018.7 |
| 20260506142306 | 48 | 139 | 2.0 | 7.0 | 0.00 | 0.02 | 0.00 | 61 | 1018.7 |
| 20260506141805 | 48 | 144 | 1.0 | 5.0 | 0.00 | 0.02 | 0.00 | 61 | 1018.8 |
| 20260506141304 | 48 | 131 | 1.0 | 6.0 | 0.00 | 0.02 | 0.00 | 62 | 1018.8 |
| 20260506141034 | 47 | 55 | 1.0 | 7.0 | 0.00 | 0.02 | 0.00 | 62 | 1018.7 |
| 20260506140304 | 47 | 28 | 1.0 | 7.0 | 0.00 | 0.02 | 0.00 | 62 | 1018.6 |
| 20260506135804 | 47 | 107 | 1.0 | 4.0 | 0.00 | 0.02 | 0.00 | 62 | 1018.5 |
| 20260506135306 | 47 | 105 | 1.0 | 4.0 | 0.00 | 0.02 | 0.00 | 63 | 1018.6 |
| 20260506134804 | 46 | 136 | 1.0 | 5.0 | 0.00 | 0.02 | 0.00 | 64 | 1018.5 |
| 20260506134304 | 46 | 125 | 1.0 | 6.0 | 0.00 | 0.02 | 0.00 | 64 | 1018.6 |
| 20260506133805 | 45 | 64 | 2.0 | 7.0 | 0.00 | 0.02 | 0.00 | 65 | 1018.3 |
| 20260506133301 | 45 | 30 | 2.0 | 7.0 | 0.00 | 0.02 | 0.00 | 65 | 1018.3 |
| 20260506132756 | 45 | 93 | 2.0 | 6.0 | 0.00 | 0.02 | 0.00 | 66 | 1018.3 |
| 20260506132250 | 44 | 99 | 1.0 | 6.0 | 0.00 | 0.02 | 0.00 | 67 | 1018.2 |
| 20260506131744 | 44 | 28 | 1.0 | 8.0 | 0.00 | 0.02 | 0.00 | 68 | 1018.2 |
| 20260506131238 | 44 | 109 | 1.0 | 8.0 | 0.00 | 0.02 | 0.00 | 68 | 1018.2 |
| 20260506130733 | 44 | 24 | 2.0 | 9.0 | 0.00 | 0.02 | 0.00 | 68 | 1018.2 |
| 20260506130505 | 43 | 88 | 2.0 | 9.0 | 0.00 | 0.02 | 0.00 | 68 | 1018.1 |
| 20260506125734 | 43 | 34 | 1.0 | 10.0 | 0.00 | 0.02 | 0.00 | 69 | 1018.1 |
| 20260506125720 | 43 | 20 | 1.0 | 10.0 | 0.00 | 0.02 | 0.00 | 69 | 1018.2 |
| 20260506125004 | 43 | 355 | 1.0 | 7.0 | 0.00 | 0.02 | 0.00 | 69 | 1018.1 |
| 20260506124234 | 43 | 23 | 1.0 | 11.0 | 0.00 | 0.02 | 0.00 | 70 | 1018.0 |
| 20260506123734 | 43 | 115 | 1.0 | 11.0 | 0.00 | 0.02 | 0.00 | 69 | 1017.9 |
| 20260506123235 | 43 | 21 | 1.0 | 4.0 | 0.00 | 0.02 | 0.00 | 69 | 1017.9 |
| 20260506122734 | 43 | 19 | 0.0 | 4.0 | 0.00 | 0.02 | 0.00 | 69 | 1017.9 |
| 20260506122234 | 43 | 30 | 0.0 | 5.0 | 0.00 | 0.02 | 0.00 | 69 | 1017.8 |
| 20260506122006 | 43 | 30 | 1.0 | 5.0 | 0.00 | 0.02 | 0.00 | 70 | 1017.7 |
| 20260506121233 | 43 | 12 | 1.0 | 5.0 | 0.00 | 0.02 | 0.00 | 69 | 1017.7 |
| 20260506120732 | 43 | 49 | 1.0 | 8.0 | 0.00 | 0.02 | 0.00 | 69 | 1017.7 |
| 20260506120233 | 43 | 32 | 1.0 | 8.0 | 0.00 | 0.02 | 0.00 | 70 | 1017.7 |
| 20260506115732 | 43 | 43 | 1.0 | 6.0 | 0.00 | 0.02 | 0.00 | 70 | 1017.5 |
| 20260506115231 | 43 | 13 | 1.0 | 8.0 | 0.00 | 0.02 | 0.00 | 70 | 1017.7 |
| 20260506114731 | 43 | 36 | 1.0 | 8.0 | 0.00 | 0.02 | 0.00 | 70 | 1017.5 |
| 20260506114231 | 43 | 96 | 1.0 | 4.0 | 0.00 | 0.02 | 0.00 | 71 | 1017.7 |
| 20260506113726 | 43 | 33 | 1.0 | 9.0 | 0.00 | 0.02 | 0.00 | 70 | 1017.8 |
| 20260506113219 | 43 | 11 | 1.0 | 9.0 | 0.00 | 0.02 | 0.00 | 70 | 1017.7 |
| 20260506112714 | 43 | 32 | 1.0 | 6.0 | 0.00 | 0.02 | 0.00 | 70 | 1017.5 |
| 20260506112214 | 43 | 11 | 0.0 | 4.0 | 0.00 | 0.02 | 0.00 | 71 | 1017.5 |
| 20260506111711 | 43 | 5 | 0.0 | 3.0 | 0.00 | 0.02 | 0.00 | 71 | 1017.5 |
| 20260506111436 | 43 | 5 | 1.0 | 3.0 | 0.00 | 0.02 | 0.00 | 71 | 1017.5 |
| 20260506110708 | 43 | 5 | 1.0 | 5.0 | 0.00 | 0.02 | 0.00 | 70 | 1017.4 |
| 20260506110208 | 44 | 0 | 1.0 | 5.0 | 0.00 | 0.02 | 0.00 | 70 | 1017.4 |
| 20260506105934 | 44 | 13 | 0.0 | 3.0 | 0.00 | 0.02 | 0.00 | 70 | 1017.3 |
| 20260506105209 | 44 | 0 | 0.0 | 5.0 | 0.00 | 0.02 | 0.00 | 70 | 1017.3 |
| 20260506104707 | 44 | 338 | 1.0 | 5.0 | 0.00 | 0.02 | 0.00 | 69 | 1017.3 |
| 20260506104205 | 44 | 26 | 1.0 | 5.0 | 0.00 | 0.02 | 0.00 | 69 | 1017.3 |
| 20260506103705 | 44 | 41 | 1.0 | 5.0 | 0.00 | 0.02 | 0.00 | 70 | 1017.2 |
| 20260506103204 | 44 | 45 | 0.0 | 5.0 | 0.00 | 0.02 | 0.00 | 70 | 1017.2 |
| 20260506102705 | 44 | 57 | 0.0 | 4.0 | 0.00 | 0.02 | 0.00 | 70 | 1017.1 |
| 20260506102203 | 44 | 25 | 0.0 | 1.0 | 0.00 | 0.02 | 0.00 | 71 | 1017.1 |
| 20260506101704 | 44 | 24 | 1.0 | 6.0 | 0.00 | 0.02 | 0.00 | 71 | 1017.0 |
| 20260506101203 | 44 | 24 | 1.0 | 6.0 | 0.00 | 0.02 | 0.00 | 70 | 1017.0 |
| 20260506100659 | 44 | 36 | 0.0 | 3.0 | 0.00 | 0.02 | 0.00 | 70 | 1016.9 |
| 20260506100200 | 44 | 38 | 0.0 | 3.0 | 0.00 | 0.02 | 0.00 | 70 | 1016.9 |
| 20260506095657 | 44 | 71 | 0.0 | 3.0 | 0.00 | 0.02 | 0.00 | 70 | 1016.9 |
| 20260506095204 | 44 | 71 | 1.0 | 4.0 | 0.00 | 0.02 | 0.00 | 70 | 1016.7 |
| 20260506094700 | 44 | 26 | 0.0 | 4.0 | 0.00 | 0.02 | 0.00 | 70 | 1016.6 |
| 20260506094152 | 44 | 11 | 1.0 | 5.0 | 0.00 | 0.02 | 0.00 | 70 | 1016.5 |
| 20260506093652 | 44 | 10 | 1.0 | 5.0 | 0.00 | 0.02 | 0.00 | 70 | 1016.6 |
| 20260506093152 | 44 | 24 | 0.0 | 2.0 | 0.00 | 0.02 | 0.00 | 71 | 1016.6 |
| 20260506092652 | 44 | 23 | 0.0 | 1.0 | 0.00 | 0.02 | 0.00 | 71 | 1016.5 |
| 20260506092156 | 44 | 22 | 0.0 | 5.0 | 0.00 | 0.02 | 0.00 | 71 | 1016.5 |
| 20260506092151 | 44 | 22 | 0.0 | 3.0 | 0.00 | 0.02 | 0.00 | 71 | 1016.6 |
| 20260506091150 | 45 | 22 | 0.0 | 5.0 | 0.00 | 0.02 | 0.00 | 70 | 1016.5 |
| 20260506090650 | 45 | 19 | 0.0 | 4.0 | 0.00 | 0.02 | 0.00 | 70 | 1016.4 |
| 20260506090152 | 45 | 19 | 0.0 | 4.0 | 0.00 | 0.02 | 0.00 | 70 | 1016.5 |
| 20260506085907 | 45 | 15 | 1.0 | 10.0 | 0.00 | 0.02 | 0.00 | 70 | 1016.5 |
| 20260506085148 | 45 | 28 | 1.0 | 10.0 | 0.00 | 0.02 | 0.00 | 70 | 1016.4 |
| 20260506084919 | 45 | 344 | 0.0 | 7.0 | 0.00 | 0.02 | 0.00 | 70 | 1016.4 |
| 20260506084407 | 45 | 355 | 1.0 | 7.0 | 0.00 | 0.02 | 0.00 | 70 | 1016.3 |
| 20260506083647 | 45 | 42 | 1.0 | 4.0 | 0.00 | 0.02 | 0.00 | 70 | 1016.3 |
| 20260506083147 | 45 | 57 | 1.0 | 9.0 | 0.00 | 0.02 | 0.00 | 70 | 1016.5 |
| 20260506082642 | 45 | 36 | 2.0 | 9.0 | 0.00 | 0.02 | 0.00 | 71 | 1016.4 |
| 20260506082429 | 45 | 98 | 1.0 | 8.0 | 0.00 | 0.02 | 0.00 | 72 | 1016.5 |
| 20260506081905 | 45 | 15 | 0.0 | 5.0 | 0.00 | 0.02 | 0.00 | 72 | 1016.4 |
| 20260506081140 | 45 | 28 | 1.0 | 5.0 | 0.00 | 0.02 | 0.00 | 72 | 1016.5 |
| 20260506080639 | 45 | 23 | 1.0 | 3.0 | 0.00 | 0.02 | 0.00 | 73 | 1016.5 |
| 20260506080140 | 45 | 30 | 1.0 | 5.0 | 0.00 | 0.02 | 0.00 | 73 | 1016.5 |
| 20260506073135 | 46 | 35 | 1.0 | 9.0 | 0.00 | 0.02 | 0.00 | 72 | 1016.4 |
| 20260506072635 | 46 | 24 | 0.0 | 2.0 | 0.00 | 0.02 | 0.00 | 72 | 1016.3 |
| 20260506072134 | 46 | 24 | 0.0 | 4.0 | 0.00 | 0.02 | 0.00 | 72 | 1016.3 |
| 20260506071853 | 47 | 24 | 1.0 | 7.0 | 0.00 | 0.02 | 0.00 | 72 | 1016.3 |
| 20260506071354 | 47 | 23 | 1.0 | 7.0 | 0.00 | 0.02 | 0.00 | 72 | 1016.3 |
| 20260506070858 | 47 | 54 | 0.0 | 4.0 | 0.00 | 0.02 | 0.00 | 72 | 1016.3 |
| 20260506070131 | 47 | 0 | 0.0 | 3.0 | 0.00 | 0.02 | 0.00 | 72 | 1016.2 |